Time,TemperatureF,DewpointF,PressureIn,WindDirection,WindDirectionDegrees,WindSpeedMPH,WindSpeedGustMPH,Humidity,HourlyPrecipIn,Conditions,Clouds,dailyrainin,SolarRadiationWatts/m^2,SoftwareType,DateUTC
2013-04-16 00:02:00,14.0,6.0,-100.00,North,8,18.0,26.0,69,0.00,,,0.01,0.000000,,2013-04-16 06:02:00,
2013-04-16 00:32:00,13.0,5.0,-100.00,North,7,17.0,27.0,70,0.00,,,0.01,0.000000,,2013-04-16 06:32:00,
2013-04-16 00:42:00,13.0,5.0,-100.00,North,7,17.0,27.0,70,0.00,,,0.01,0.000000,,2013-04-16 06:42:00,
2013-04-16 00:52:00,13.0,5.0,-100.00,North,7,17.0,27.0,70,0.00,,,0.01,0.000000,,2013-04-16 06:52:00,
2013-04-16 01:02:00,13.0,5.0,-100.00,North,7,17.0,27.0,70,0.00,,,0.01,0.000000,,2013-04-16 07:02:00,
2013-04-16 01:32:00,12.0,4.0,-100.00,North,10,18.0,26.0,71,0.00,,,0.01,0.000000,,2013-04-16 07:32:00,
2013-04-16 01:42:00,12.0,4.0,-100.00,North,10,18.0,26.0,71,0.00,,,0.01,0.000000,,2013-04-16 07:42:00,
2013-04-16 01:53:00,12.0,4.0,-100.00,North,10,18.0,26.0,71,0.00,,,0.01,0.000000,,2013-04-16 07:53:00,
2013-04-16 02:02:00,12.0,4.0,-100.00,North,10,18.0,26.0,71,0.00,,,0.01,0.000000,,2013-04-16 08:02:00,
2013-04-16 02:32:00,11.0,4.0,-100.00,NNE,12,16.0,26.0,73,0.00,,,0.01,0.000000,,2013-04-16 08:32:00,
2013-04-16 02:42:00,11.0,4.0,-100.00,NNE,12,16.0,26.0,73,0.00,,,0.01,0.000000,,2013-04-16 08:42:00,
2013-04-16 02:52:00,11.0,4.0,-100.00,NNE,12,16.0,26.0,73,0.00,,,0.01,0.000000,,2013-04-16 08:52:00,
2013-04-16 03:02:00,11.0,4.0,-100.00,NNE,12,16.0,26.0,73,0.00,,,0.01,0.000000,,2013-04-16 09:02:00,
2013-04-16 03:33:00,10.0,3.0,-100.00,North,6,16.0,23.0,74,0.00,,,0.01,0.000000,,2013-04-16 09:33:00,
2013-04-16 03:43:00,10.0,3.0,-100.00,North,6,16.0,23.0,74,0.00,,,0.01,0.000000,,2013-04-16 09:43:00,
2013-04-16 03:53:00,10.0,3.0,-100.00,North,6,16.0,23.0,74,0.00,,,0.01,0.000000,,2013-04-16 09:53:00,
2013-04-16 04:03:00,10.0,3.0,-100.00,North,6,16.0,23.0,74,0.00,,,0.01,0.000000,,2013-04-16 10:03:00,
2013-04-16 04:33:00,10.0,3.0,-100.00,North,8,15.0,22.0,74,0.00,,,0.01,0.000000,,2013-04-16 10:33:00,
2013-04-16 04:43:00,10.0,3.0,-100.00,North,8,15.0,22.0,74,0.00,,,0.01,0.000000,,2013-04-16 10:43:00,
2013-04-16 04:53:00,10.0,3.0,-100.00,North,8,15.0,22.0,74,0.00,,,0.01,0.000000,,2013-04-16 10:53:00,
2013-04-16 05:02:00,10.0,3.0,-100.00,North,8,15.0,22.0,74,0.00,,,0.01,0.000000,,2013-04-16 11:02:00,
2013-04-16 05:32:00,10.0,4.0,-100.00,North,0,14.0,23.0,76,0.00,,,0.01,0.000000,,2013-04-16 11:32:00,
2013-04-16 05:42:00,10.0,4.0,-100.00,North,0,14.0,23.0,76,0.00,,,0.01,0.000000,,2013-04-16 11:42:00,
2013-04-16 05:52:00,10.0,4.0,-100.00,North,0,14.0,23.0,76,0.00,,,0.01,0.000000,,2013-04-16 11:52:00,
2013-04-16 06:02:00,10.0,4.0,-100.00,North,0,14.0,23.0,76,0.00,,,0.01,0.000000,,2013-04-16 12:02:00,
2013-04-16 06:32:00,9.0,4.0,-100.00,North,6,11.0,19.0,78,0.00,,,0.01,0.000000,,2013-04-16 12:32:00,
2013-04-16 06:42:00,9.0,4.0,-100.00,North,6,11.0,19.0,78,0.00,,,0.01,0.000000,,2013-04-16 12:42:00,
2013-04-16 06:52:00,9.0,4.0,-100.00,North,6,11.0,19.0,78,0.00,,,0.01,0.000000,,2013-04-16 12:52:00,
2013-04-16 07:02:00,9.0,4.0,-100.00,North,6,11.0,19.0,78,0.00,,,0.01,0.000000,,2013-04-16 13:02:00,
2013-04-16 07:32:00,10.0,4.0,-100.00,NNE,23,12.0,22.0,75,0.00,,,0.01,4.000000,,2013-04-16 13:32:00,
2013-04-16 07:42:00,10.0,4.0,-100.00,NNE,23,12.0,22.0,75,0.00,,,0.01,4.000000,,2013-04-16 13:42:00,
2013-04-16 07:52:00,10.0,4.0,-100.00,NNE,23,12.0,22.0,75,0.00,,,0.01,4.000000,,2013-04-16 13:52:00,
2013-04-16 08:02:00,10.0,4.0,-100.00,NNE,23,12.0,22.0,75,0.00,,,0.01,4.000000,,2013-04-16 14:02:00,
2013-04-16 08:32:00,13.0,4.0,-100.00,NNE,18,8.0,16.0,66,0.00,,,0.01,127.000000,,2013-04-16 14:32:00,
2013-04-16 08:42:00,13.0,4.0,-100.00,NNE,18,8.0,16.0,66,0.00,,,0.01,127.000000,,2013-04-16 14:42:00,
2013-04-16 08:52:00,13.0,4.0,-100.00,NNE,18,8.0,16.0,66,0.00,,,0.01,127.000000,,2013-04-16 14:52:00,
2013-04-16 09:02:00,13.0,4.0,-100.00,NNE,18,8.0,16.0,66,0.00,,,0.01,127.000000,,2013-04-16 15:02:00,
2013-04-16 09:33:00,14.0,3.0,-100.00,NNE,23,10.0,18.0,62,0.00,,,0.01,89.000000,,2013-04-16 15:33:00,
2013-04-16 09:43:00,14.0,3.0,-100.00,NNE,23,10.0,18.0,62,0.00,,,0.01,89.000000,,2013-04-16 15:43:00,
2013-04-16 09:53:00,14.0,3.0,-100.00,NNE,23,10.0,18.0,62,0.00,,,0.01,89.000000,,2013-04-16 15:53:00,
2013-04-16 10:03:00,14.0,3.0,-100.00,NNE,23,10.0,18.0,62,0.00,,,0.01,89.000000,,2013-04-16 16:03:00,
2013-04-16 10:33:00,20.0,3.0,-100.00,North,5,10.0,19.0,47,0.00,,,0.01,511.000000,,2013-04-16 16:33:00,
2013-04-16 10:42:00,20.0,3.0,-100.00,North,5,10.0,19.0,47,0.00,,,0.01,511.000000,,2013-04-16 16:42:00,
2013-04-16 10:52:00,20.0,3.0,-100.00,North,5,10.0,19.0,47,0.00,,,0.01,511.000000,,2013-04-16 16:52:00,
2013-04-16 11:02:00,20.0,3.0,-100.00,North,5,10.0,19.0,47,0.00,,,0.01,511.000000,,2013-04-16 17:02:00,
2013-04-16 11:33:00,19.0,3.0,-100.00,North,6,11.0,18.0,49,0.00,,,0.01,361.000000,,2013-04-16 17:33:00,
2013-04-16 11:43:00,19.0,3.0,-100.00,North,6,11.0,18.0,49,0.00,,,0.01,361.000000,,2013-04-16 17:43:00,
2013-04-16 11:53:00,19.0,3.0,-100.00,North,6,11.0,18.0,49,0.00,,,0.01,361.000000,,2013-04-16 17:53:00,
2013-04-16 12:02:00,19.0,3.0,-100.00,North,6,11.0,18.0,49,0.00,,,0.01,361.000000,,2013-04-16 18:02:00,
2013-04-16 12:32:00,21.0,4.0,-100.00,NNE,14,12.0,20.0,46,0.00,,,0.01,406.000000,,2013-04-16 18:32:00,
2013-04-16 12:43:00,21.0,4.0,-100.00,NNE,14,12.0,20.0,46,0.00,,,0.01,406.000000,,2013-04-16 18:43:00,
2013-04-16 12:52:00,21.0,4.0,-100.00,NNE,14,12.0,20.0,46,0.00,,,0.01,406.000000,,2013-04-16 18:52:00,
2013-04-16 13:02:00,21.0,4.0,-100.00,NNE,14,12.0,20.0,46,0.00,,,0.01,406.000000,,2013-04-16 19:02:00,
2013-04-16 13:32:00,23.0,5.0,-100.00,North,357,13.0,21.0,46,0.00,,,0.00,478.000000,,2013-04-16 19:32:00,
2013-04-16 13:42:00,23.0,5.0,-100.00,North,357,13.0,21.0,46,0.00,,,0.00,478.000000,,2013-04-16 19:42:00,
2013-04-16 13:52:00,23.0,5.0,-100.00,North,357,13.0,21.0,46,0.00,,,0.00,478.000000,,2013-04-16 19:52:00,
2013-04-16 14:02:00,23.0,5.0,-100.00,North,357,13.0,21.0,46,0.00,,,0.00,478.000000,,2013-04-16 20:02:00,
2013-04-16 14:32:00,25.0,5.0,-100.00,North,6,13.0,22.0,41,0.00,,,0.00,491.000000,,2013-04-16 20:32:00,
2013-04-16 14:42:00,25.0,5.0,-100.00,North,6,13.0,22.0,41,0.00,,,0.00,491.000000,,2013-04-16 20:42:00,
2013-04-16 14:52:00,25.0,5.0,-100.00,North,6,13.0,22.0,41,0.00,,,0.00,491.000000,,2013-04-16 20:52:00,
2013-04-16 15:02:00,25.0,5.0,-100.00,North,6,13.0,22.0,41,0.00,,,0.00,491.000000,,2013-04-16 21:02:00,
2013-04-16 15:33:00,26.0,2.0,-100.00,North,11,12.0,22.0,34,0.00,,,0.00,647.000000,,2013-04-16 21:33:00,
2013-04-16 15:43:00,26.0,2.0,-100.00,North,11,12.0,22.0,34,0.00,,,0.00,647.000000,,2013-04-16 21:43:00,
2013-04-16 15:53:00,26.0,2.0,-100.00,North,11,12.0,22.0,34,0.00,,,0.00,647.000000,,2013-04-16 21:53:00,
2013-04-16 16:02:00,26.0,2.0,-100.00,North,11,12.0,22.0,34,0.00,,,0.00,647.000000,,2013-04-16 22:02:00,
2013-04-16 16:33:00,23.0,9.0,-100.00,North,0,18.0,30.0,54,0.00,,,0.00,389.000000,,2013-04-16 22:33:00,
2013-04-16 16:43:00,23.0,9.0,-100.00,North,0,18.0,30.0,54,0.00,,,0.00,389.000000,,2013-04-16 22:43:00,
2013-04-16 16:52:00,23.0,9.0,-100.00,North,0,18.0,30.0,54,0.00,,,0.00,389.000000,,2013-04-16 22:52:00,
2013-04-16 17:02:00,23.0,9.0,-100.00,North,0,18.0,30.0,54,0.00,,,0.00,389.000000,,2013-04-16 23:02:00,
2013-04-16 17:32:00,23.0,4.0,-100.00,North,1,18.0,25.0,43,0.00,,,-99.99,570.000000,,2013-04-16 23:32:00,
2013-04-16 17:43:00,23.0,4.0,-100.00,North,1,18.0,25.0,43,0.00,,,-99.99,570.000000,,2013-04-16 23:43:00,
2013-04-16 17:52:00,23.0,4.0,-100.00,North,1,18.0,25.0,43,0.00,,,-99.99,570.000000,,2013-04-16 23:52:00,
2013-04-16 18:02:00,23.0,4.0,-100.00,North,1,18.0,25.0,43,0.00,,,-99.99,570.000000,,2013-04-17 00:02:00,
2013-04-16 18:32:00,26.0,6.0,-100.00,North,357,11.0,23.0,42,0.00,,,-99.99,403.000000,,2013-04-17 00:32:00,
2013-04-16 18:42:00,26.0,6.0,-100.00,North,357,11.0,23.0,42,0.00,,,-99.99,403.000000,,2013-04-17 00:42:00,
2013-04-16 18:52:00,26.0,6.0,-100.00,North,357,11.0,23.0,42,0.00,,,-99.99,403.000000,,2013-04-17 00:52:00,
2013-04-16 19:02:00,26.0,6.0,-100.00,North,357,11.0,23.0,42,0.00,,,-99.99,403.000000,,2013-04-17 01:02:00,
2013-04-16 19:32:00,21.0,10.0,-100.00,North,5,13.0,27.0,62,0.00,,,0.00,318.000000,,2013-04-17 01:32:00,
2013-04-16 19:42:00,21.0,10.0,-100.00,North,5,13.0,27.0,62,0.00,,,0.00,318.000000,,2013-04-17 01:42:00,
2013-04-16 19:52:00,21.0,10.0,-100.00,North,5,13.0,27.0,62,0.00,,,0.00,318.000000,,2013-04-17 01:52:00,
2013-04-16 20:02:00,21.0,10.0,-100.00,North,5,13.0,27.0,62,0.00,,,0.00,318.000000,,2013-04-17 02:02:00,
2013-04-16 20:32:00,18.0,8.0,-100.00,NNE,16,12.0,24.0,65,0.00,,,0.00,76.000000,,2013-04-17 02:32:00,
2013-04-16 20:42:00,18.0,8.0,-100.00,NNE,16,12.0,24.0,65,0.00,,,0.00,76.000000,,2013-04-17 02:42:00,
2013-04-16 20:52:00,18.0,8.0,-100.00,NNE,16,12.0,24.0,65,0.00,,,0.00,76.000000,,2013-04-17 02:52:00,
2013-04-16 21:02:00,18.0,8.0,-100.00,NNE,16,12.0,24.0,65,0.00,,,0.00,76.000000,,2013-04-17 03:02:00,
2013-04-16 21:33:00,16.0,8.0,-100.00,NNE,23,15.0,22.0,69,0.00,,,-99.99,3.000000,,2013-04-17 03:33:00,
2013-04-16 21:42:00,16.0,8.0,-100.00,NNE,23,15.0,22.0,69,0.00,,,-99.99,3.000000,,2013-04-17 03:42:00,
2013-04-16 21:53:00,16.0,8.0,-100.00,NNE,23,15.0,22.0,69,0.00,,,-99.99,3.000000,,2013-04-17 03:53:00,
2013-04-16 22:03:00,16.0,8.0,-100.00,NNE,23,15.0,22.0,69,0.00,,,-99.99,3.000000,,2013-04-17 04:03:00,
2013-04-16 22:33:00,15.0,5.0,-100.00,North,7,12.0,23.0,64,0.00,,,0.00,0.000000,,2013-04-17 04:33:00,
2013-04-16 22:42:00,15.0,5.0,-100.00,North,7,12.0,23.0,64,0.00,,,0.00,0.000000,,2013-04-17 04:42:00,
2013-04-16 22:52:00,15.0,5.0,-100.00,North,7,12.0,23.0,64,0.00,,,0.00,0.000000,,2013-04-17 04:52:00,
2013-04-16 23:02:00,15.0,5.0,-100.00,North,7,12.0,23.0,64,0.00,,,0.00,0.000000,,2013-04-17 05:02:00,
2013-04-16 23:32:00,14.0,6.0,-100.00,North,7,10.0,19.0,71,0.00,,,0.00,0.000000,,2013-04-17 05:32:00,
2013-04-16 23:43:00,14.0,6.0,-100.00,North,7,10.0,19.0,71,0.00,,,0.00,0.000000,,2013-04-17 05:43:00,
2013-04-16 23:52:00,14.0,6.0,-100.00,North,7,10.0,19.0,71,0.00,,,0.00,0.000000,,2013-04-17 05:52:00,